Lawrenceville, GA

4:50 AM EST on November 22, 2019 (GMT -0500)
Gwinnett County-Briscoe

Weather History for KLZU - October, 2019

Change the Weather History Date:

Monday, October 21, 2019

  Actual Average (KWDR) Record (KWDR)
Temperature  
Mean Temperature 64 °F -  
Max Temperature 75 °F 71 °F 89 °F (1963)
Min Temperature 53 °F 45 °F 30 °F (1989)
Degree Days  
Heating Degree Days 1    
Growing Degree Days 14 (Base 50)    
Moisture  
Dew Point 58 °F    
Average Humidity 95    
Maximum Humidity 100    
Minimum Humidity 66    
Precipitation  
Precipitation 0.00 in - - ()
Sea Level Pressure  
Sea Level Pressure 29.99 in    
Wind  
Wind Speed 1 mph ()    
Max Wind Speed 12 mph    
Max Gust Speed 16 mph    
Visibility 4.3 miles    
Events Fog    
Averages and records for this station are not official NWS values.
T = Trace of Precipitation, MM = Missing Value Source: Averaged Metar Reports

Daily Weather History Graph

Daily Weather History Graph

Search for Another Location

Airport or City:

Astronomy

Oct. 21, 2019 Rise Set
Actual Time 7:45 AM EDT 6:54 PM EDT
Civil Twilight 7:20 AM EDT 7:20 PM EDT
Nautical Twilight 6:51 AM EDT 7:49 PM EDT
Astronomical Twilight 6:22 AM EDT 8:18 PM EDT
Moon 12:14 AM EDT (10/21) 2:53 PM EDT (10/21)
Length of Visible Light 11h 59m
Length of Day
11h 09m
Waning Gibbous, 48% of the Moon is Illuminated
Oct 21
Waning Gibbous
Oct 27
New
Nov 4
First Quarter
Nov 12
Full
Nov 19
Last Quarter

Hourly Weather History & Observations

Time (EDT) Temp. Dew Point Humidity Pressure Visibility Wind Dir Wind Speed Gust Speed Precip Events Conditions
12:56 AM 61.0 °F 60.1 °F 97% 30.00 in 10.0 mi WSW 4.6 mph - N/A   Clear
1:56 AM 59.0 °F 59.0 °F 100% 29.99 in 10.0 mi Calm Calm - N/A   Clear
2:10 AM 57.2 °F 57.2 °F 100% 29.98 in 0.8 mi Calm Calm - N/A   Clear
2:16 AM 57.2 °F 57.2 °F 100% 29.98 in 1.2 mi Calm Calm - N/A   Clear
2:19 AM 57.2 °F 57.2 °F 100% 29.98 in 3.0 mi Calm Calm - N/A   Clear
2:56 AM 57.0 °F 57.0 °F 100% 30.00 in 2.5 mi Calm Calm - N/A   Clear
3:04 AM 57.2 °F 57.2 °F 100% 29.98 in 0.5 mi Calm Calm - N/A Fog Fog
3:15 AM 57.2 °F 57.2 °F 100% 29.98 in 1.0 mi Calm Calm - N/A   Clear
3:18 AM 55.4 °F 55.4 °F 100% 29.98 in 2.0 mi Calm Calm - N/A   Clear
3:20 AM 55.4 °F 55.4 °F 100% 29.98 in 1.0 mi Calm Calm - N/A   Clear
3:22 AM 55.4 °F 55.4 °F 100% 29.98 in 0.5 mi Calm Calm - N/A Fog Fog
3:34 AM 55.4 °F 55.4 °F 100% 29.98 in 1.0 mi Calm Calm - N/A   Clear
3:37 AM 55.4 °F 55.4 °F 100% 29.98 in 2.0 mi Calm Calm - N/A   Clear
3:42 AM 55.4 °F 55.4 °F 100% 29.98 in 1.0 mi Calm Calm - N/A   Clear
3:49 AM 55.4 °F 55.4 °F 100% 29.98 in 0.8 mi Calm Calm - N/A   Clear
3:52 AM 55.4 °F 55.4 °F 100% 29.98 in 2.0 mi Calm Calm - N/A   Clear
3:56 AM 55.9 °F 55.9 °F 100% 29.99 in 6.0 mi Calm Calm - N/A   Clear
4:11 AM 55.4 °F 55.4 °F 100% 29.97 in 1.8 mi Calm Calm - N/A   Clear
4:22 AM 55.4 °F 55.4 °F 100% 29.97 in 4.0 mi Calm Calm - N/A   Clear
4:26 AM 55.4 °F 55.4 °F 100% 29.97 in 1.5 mi Calm Calm - N/A   Clear
4:28 AM 55.4 °F 55.4 °F 100% 29.96 in 0.8 mi Calm Calm - N/A   Clear
4:38 AM 55.4 °F 55.4 °F 100% 29.96 in 1.5 mi Calm Calm - N/A   Clear
4:40 AM 55.4 °F 55.4 °F 100% 29.96 in 4.0 mi Calm Calm - N/A   Clear
4:46 AM 55.4 °F 55.4 °F 100% 29.96 in 1.8 mi Calm Calm - N/A   Clear
4:50 AM 55.4 °F 55.4 °F 100% 29.97 in 0.8 mi Calm Calm - N/A   Mist
4:56 AM 54.0 °F 54.0 °F 100% 29.99 in 0.2 mi Calm Calm - N/A Fog Fog
5:02 AM 55.4 °F 55.4 °F 100% 29.97 in 0.8 mi Calm Calm - N/A   Mostly Cloudy
5:05 AM 55.4 °F 55.4 °F 100% 29.97 in 1.5 mi Calm Calm - N/A   Mostly Cloudy
5:08 AM 55.4 °F 55.4 °F 100% 29.97 in 3.0 mi Calm Calm - N/A   Mostly Cloudy
5:11 AM 55.4 °F 55.4 °F 100% 29.97 in 1.8 mi Calm Calm - N/A   Mostly Cloudy
5:17 AM 53.6 °F 53.6 °F 100% 29.97 in 0.8 mi Calm Calm - N/A   Mist
5:27 AM 55.4 °F 55.4 °F 100% 29.97 in 1.2 mi Calm Calm - N/A   Scattered Clouds
5:35 AM 55.4 °F 55.4 °F 100% 29.98 in 4.0 mi Calm Calm - N/A   Scattered Clouds
5:44 AM 55.4 °F 55.4 °F 100% 29.98 in 2.5 mi Calm Calm - N/A   Scattered Clouds
5:54 AM 55.4 °F 55.4 °F 100% 29.98 in 5.0 mi Calm Calm - N/A   Partly Cloudy
5:56 AM 55.0 °F 55.0 °F 100% 29.99 in 5.0 mi Calm Calm - N/A   Partly Cloudy
6:12 AM 53.6 °F 53.6 °F 100% 29.97 in 1.8 mi Calm Calm - N/A   Clear
6:18 AM 53.6 °F 53.6 °F 100% 29.98 in 4.0 mi Calm Calm - N/A   Clear
6:56 AM 53.1 °F 53.1 °F 100% 30.01 in 8.0 mi Calm Calm - N/A   Clear
7:56 AM 54.0 °F 54.0 °F 100% 30.03 in 9.0 mi Calm Calm - N/A   Partly Cloudy
8:34 AM 57.2 °F 57.2 °F 100% 30.01 in 2.0 mi NE 3.5 mph - N/A   Mostly Cloudy
8:53 AM 57.2 °F 57.2 °F 100% 30.01 in 0.5 mi NE 4.6 mph - N/A Fog Fog
8:56 AM 57.9 °F 57.9 °F 100% 30.04 in 0.5 mi ENE 4.6 mph - N/A Fog Fog
9:56 AM 59.0 °F 59.0 °F 100% 30.06 in 2.0 mi East 4.6 mph - N/A   Overcast
10:54 AM 62.6 °F 60.8 °F 94% 30.05 in 7.0 mi East 3.5 mph - N/A   Mostly Cloudy
10:56 AM 63.0 °F 61.0 °F 93% 30.08 in 7.0 mi ESE 3.5 mph - N/A   Mostly Cloudy
11:40 AM 66.2 °F 62.6 °F 88% 30.04 in 7.0 mi East 6.9 mph - N/A   Scattered Clouds
11:56 AM 66.0 °F 63.0 °F 90% 30.05 in 7.0 mi ENE 9.2 mph - N/A   Mostly Cloudy
12:56 PM 70.0 °F 64.0 °F 81% 30.03 in 7.0 mi East 10.4 mph - N/A   Mostly Cloudy
1:06 PM 71.6 °F 64.4 °F 78% 30.01 in 7.0 mi East 11.5 mph 16.1 mph N/A   Mostly Cloudy
1:56 PM 72.0 °F 64.9 °F 78% 30.01 in 7.0 mi ENE 5.8 mph - N/A   Overcast
2:56 PM 75.0 °F 63.0 °F 66% 29.99 in 10.0 mi SE 6.9 mph - N/A   Mostly Cloudy
3:56 PM 73.9 °F 63.0 °F 68% 30.00 in 10.0 mi SSE 4.6 mph - N/A   Scattered Clouds
4:56 PM 73.9 °F 64.0 °F 71% 29.99 in 10.0 mi ESE 5.8 mph - N/A   Partly Cloudy
5:56 PM 73.9 °F 64.9 °F 73% 29.99 in 10.0 mi ESE 5.8 mph - N/A   Scattered Clouds
6:56 PM 70.0 °F 64.9 °F 84% 29.99 in 10.0 mi East 4.6 mph - N/A   Mostly Cloudy
7:56 PM 69.1 °F 64.9 °F 87% 30.00 in 10.0 mi East 4.6 mph - N/A   Overcast
8:56 PM 68.0 °F 64.9 °F 90% 30.01 in 10.0 mi Calm Calm - N/A   Overcast
9:56 PM 68.0 °F 66.0 °F 93% 30.01 in 10.0 mi East 4.6 mph - N/A   Mostly Cloudy
10:56 PM 66.9 °F 66.0 °F 97% 29.97 in 10.0 mi East 8.1 mph - 0.00 in   Clear
11:56 PM 66.0 °F 64.9 °F 96% 29.96 in 10.0 mi East 4.6 mph - 0.00 in   Clear